owner,sensor,date,latitude,longitude,air_temperature,qcFlag 
COMPS,ioos:station:USF.COMPS:BGC:1,2011-07-14T20:00:00Z,26.4040,-81.8810,29.97,1111122 
COMPS,ioos:station:USF.COMPS:BGC:1,2011-07-14T20:06:00Z,26.4040,-81.8810,29.94,1111122 
COMPS,ioos:station:USF.COMPS:BGC:1,2011-07-14T20:12:00Z,26.4040,-81.8810,29.88,1111122 
COMPS,ioos:station:USF.COMPS:BGC:1,2011-07-14T20:18:00Z,26.4040,-81.8810,29.92,1111122 
COMPS,ioos:station:USF.COMPS:BGC:1,2011-07-14T20:24:00Z,26.4040,-81.8810,29.97,1111122 
COMPS,ioos:station:USF.COMPS:BGC:1,2011-07-14T20:30:00Z,26.4040,-81.8810,29.87,1111122 
COMPS,ioos:station:USF.COMPS:BGC:1,2011-07-14T20:36:00Z,26.4040,-81.8810,30.01,1111122 
COMPS,ioos:station:USF.COMPS:BGC:1,2011-07-14T20:42:00Z,26.4040,-81.8810,30.02,1111122 
COMPS,ioos:station:USF.COMPS:BGC:1,2011-07-14T20:48:00Z,26.4040,-81.8810,30.04,1111122 
COMPS,ioos:station:USF.COMPS:BGC:1,2011-07-14T20:54:00Z,26.4040,-81.8810,30.06,1111122 
COMPS,ioos:station:USF.COMPS:BGC:1,2011-07-14T21:00:00Z,26.4040,-81.8810,30.1,1111122 
COMPS,ioos:station:USF.COMPS:BGC:1,2011-07-14T21:06:00Z,26.4040,-81.8810,30.03,1111122 
COMPS,ioos:station:USF.COMPS:BGC:1,2011-07-14T21:12:00Z,26.4040,-81.8810,30.06,1111122 
COMPS,ioos:station:USF.COMPS:BGC:1,2011-07-14T21:18:00Z,26.4040,-81.8810,30.02,1111122 
COMPS,ioos:station:USF.COMPS:BGC:1,2011-07-14T21:24:00Z,26.4040,-81.8810,30.07,1111122 
COMPS,ioos:station:USF.COMPS:BGC:1,2011-07-14T21:30:00Z,26.4040,-81.8810,30.05,1111122 
COMPS,ioos:station:USF.COMPS:BGC:1,2011-07-14T21:36:00Z,26.4040,-81.8810,30.05,1111122 
COMPS,ioos:station:USF.COMPS:BGC:1,2011-07-14T21:42:00Z,26.4040,-81.8810,30.03,1111122 
COMPS,ioos:station:USF.COMPS:BGC:1,2011-07-14T21:48:00Z,26.4040,-81.8810,30.04,1111122 
COMPS,ioos:station:USF.COMPS:BGC:1,2011-07-14T21:54:00Z,26.4040,-81.8810,30.05,1111122 
COMPS,ioos:station:USF.COMPS:BGC:1,2011-07-14T22:00:00Z,26.4040,-81.8810,30.1,1111122 
COMPS,ioos:station:USF.COMPS:BGC:1,2011-07-14T22:06:00Z,26.4040,-81.8810,30.04,1111122 
COMPS,ioos:station:USF.COMPS:BGC:1,2011-07-14T22:12:00Z,26.4040,-81.8810,30.01,1111122 
COMPS,ioos:station:USF.COMPS:BGC:1,2011-07-14T22:18:00Z,26.4040,-81.8810,29.97,1111122 
COMPS,ioos:station:USF.COMPS:BGC:1,2011-07-14T22:24:00Z,26.4040,-81.8810,30.0,1111122 
COMPS,ioos:station:USF.COMPS:BGC:1,2011-07-14T22:30:00Z,26.4040,-81.8810,29.92,1111122 
COMPS,ioos:station:USF.COMPS:BGC:1,2011-07-14T22:36:00Z,26.4040,-81.8810,29.9,1111122 
COMPS,ioos:station:USF.COMPS:BGC:1,2011-07-14T22:42:00Z,26.4040,-81.8810,29.95,1111122 
COMPS,ioos:station:USF.COMPS:BGC:1,2011-07-14T22:48:00Z,26.4040,-81.8810,29.96,1111122 
COMPS,ioos:station:USF.COMPS:BGC:1,2011-07-14T22:54:00Z,26.4040,-81.8810,29.93,1111122 
COMPS,ioos:station:USF.COMPS:BGC:1,2011-07-14T23:00:00Z,26.4040,-81.8810,29.9,1111122 
COMPS,ioos:station:USF.COMPS:BGC:1,2011-07-14T23:06:00Z,26.4040,-81.8810,29.97,1111122 
COMPS,ioos:station:USF.COMPS:BGC:1,2011-07-14T23:12:00Z,26.4040,-81.8810,29.91,1111122 
COMPS,ioos:station:USF.COMPS:BGC:1,2011-07-14T23:18:00Z,26.4040,-81.8810,29.94,1111122 
COMPS,ioos:station:USF.COMPS:BGC:1,2011-07-14T23:24:00Z,26.4040,-81.8810,29.99,1111122 
COMPS,ioos:station:USF.COMPS:BGC:1,2011-07-14T23:30:00Z,26.4040,-81.8810,29.92,1111122 
COMPS,ioos:station:USF.COMPS:BGC:1,2011-07-14T23:36:00Z,26.4040,-81.8810,29.85,1111122 
COMPS,ioos:station:USF.COMPS:BGC:1,2011-07-14T23:42:00Z,26.4040,-81.8810,29.91,1111122 
COMPS,ioos:station:USF.COMPS:BGC:1,2011-07-14T23:48:00Z,26.4040,-81.8810,29.91,1111122 
COMPS,ioos:station:USF.COMPS:BGC:1,2011-07-14T23:54:00Z,26.4040,-81.8810,29.86,1111122 
COMPS,ioos:station:USF.COMPS:BGC:1,2011-07-15T00:00:00Z,26.4040,-81.8810,29.9,1111122 
COMPS,ioos:station:USF.COMPS:BGC:1,2011-07-15T00:06:00Z,26.4040,-81.8810,29.76,1111122 
COMPS,ioos:station:USF.COMPS:BGC:1,2011-07-15T00:12:00Z,26.4040,-81.8810,29.74,1111122 
COMPS,ioos:station:USF.COMPS:BGC:1,2011-07-15T00:18:00Z,26.4040,-81.8810,29.76,1111122 
COMPS,ioos:station:USF.COMPS:BGC:1,2011-07-15T00:24:00Z,26.4040,-81.8810,29.75,1111122 
COMPS,ioos:station:USF.COMPS:BGC:1,2011-07-15T00:30:00Z,26.4040,-81.8810,29.69,1111122 
COMPS,ioos:station:USF.COMPS:BGC:1,2011-07-15T00:36:00Z,26.4040,-81.8810,29.67,1111122 
COMPS,ioos:station:USF.COMPS:BGC:1,2011-07-15T00:42:00Z,26.4040,-81.8810,29.69,1111122 
COMPS,ioos:station:USF.COMPS:BGC:1,2011-07-15T00:48:00Z,26.4040,-81.8810,29.66,1111122 
COMPS,ioos:station:USF.COMPS:BGC:1,2011-07-15T00:54:00Z,26.4040,-81.8810,29.71,1111122 
COMPS,ioos:station:USF.COMPS:BGC:1,2011-07-15T01:00:00Z,26.4040,-81.8810,29.7,1111122 
COMPS,ioos:station:USF.COMPS:BGC:1,2011-07-15T01:06:00Z,26.4040,-81.8810,29.73,1111122 
COMPS,ioos:station:USF.COMPS:BGC:1,2011-07-15T01:12:00Z,26.4040,-81.8810,29.72,1111122 
COMPS,ioos:station:USF.COMPS:BGC:1,2011-07-15T01:18:00Z,26.4040,-81.8810,29.63,1111122 
COMPS,ioos:station:USF.COMPS:BGC:1,2011-07-15T01:24:00Z,26.4040,-81.8810,29.58,1111122 
COMPS,ioos:station:USF.COMPS:BGC:1,2011-07-15T01:30:00Z,26.4040,-81.8810,29.65,1111122 
COMPS,ioos:station:USF.COMPS:BGC:1,2011-07-15T01:36:00Z,26.4040,-81.8810,29.56,1111122 
COMPS,ioos:station:USF.COMPS:BGC:1,2011-07-15T01:42:00Z,26.4040,-81.8810,29.6,1111122 
COMPS,ioos:station:USF.COMPS:BGC:1,2011-07-15T01:48:00Z,26.4040,-81.8810,29.49,1111122 
COMPS,ioos:station:USF.COMPS:BGC:1,2011-07-15T01:54:00Z,26.4040,-81.8810,29.55,1111122 
COMPS,ioos:station:USF.COMPS:BGC:1,2011-07-15T02:00:00Z,26.4040,-81.8810,29.6,1111122 
COMPS,ioos:station:USF.COMPS:BGC:1,2011-07-15T02:06:00Z,26.4040,-81.8810,29.47,1111122 
COMPS,ioos:station:USF.COMPS:BGC:1,2011-07-15T02:12:00Z,26.4040,-81.8810,29.55,1111122 
COMPS,ioos:station:USF.COMPS:BGC:1,2011-07-15T02:18:00Z,26.4040,-81.8810,29.48,1111122 
COMPS,ioos:station:USF.COMPS:BGC:1,2011-07-15T02:24:00Z,26.4040,-81.8810,29.43,1111122 
COMPS,ioos:station:USF.COMPS:BGC:1,2011-07-15T02:30:00Z,26.4040,-81.8810,29.45,1111122 
COMPS,ioos:station:USF.COMPS:BGC:1,2011-07-15T02:36:00Z,26.4040,-81.8810,29.46,1111122 
COMPS,ioos:station:USF.COMPS:BGC:1,2011-07-15T02:42:00Z,26.4040,-81.8810,29.49,1111122 
COMPS,ioos:station:USF.COMPS:BGC:1,2011-07-15T02:48:00Z,26.4040,-81.8810,29.47,1111122 
COMPS,ioos:station:USF.COMPS:BGC:1,2011-07-15T02:54:00Z,26.4040,-81.8810,29.43,1111122 
COMPS,ioos:station:USF.COMPS:BGC:1,2011-07-15T03:00:00Z,26.4040,-81.8810,29.4,1111122 
COMPS,ioos:station:USF.COMPS:BGC:1,2011-07-15T03:06:00Z,26.4040,-81.8810,29.38,1111122 
COMPS,ioos:station:USF.COMPS:BGC:1,2011-07-15T03:12:00Z,26.4040,-81.8810,29.38,1111122 
COMPS,ioos:station:USF.COMPS:BGC:1,2011-07-15T03:18:00Z,26.4040,-81.8810,29.31,1111122 
COMPS,ioos:station:USF.COMPS:BGC:1,2011-07-15T03:24:00Z,26.4040,-81.8810,29.33,1111122 
COMPS,ioos:station:USF.COMPS:BGC:1,2011-07-15T03:30:00Z,26.4040,-81.8810,29.36,1111122 
COMPS,ioos:station:USF.COMPS:BGC:1,2011-07-15T03:36:00Z,26.4040,-81.8810,29.41,1111122 
COMPS,ioos:station:USF.COMPS:BGC:1,2011-07-15T03:42:00Z,26.4040,-81.8810,29.38,1111122 
COMPS,ioos:station:USF.COMPS:BGC:1,2011-07-15T03:48:00Z,26.4040,-81.8810,29.39,1111122 
COMPS,ioos:station:USF.COMPS:BGC:1,2011-07-15T03:54:00Z,26.4040,-81.8810,29.43,1111122 
COMPS,ioos:station:USF.COMPS:BGC:1,2011-07-15T04:00:00Z,26.4040,-81.8810,29.4,1111122 
COMPS,ioos:station:USF.COMPS:BGC:1,2011-07-15T04:06:00Z,26.4040,-81.8810,29.39,1111122 
COMPS,ioos:station:USF.COMPS:BGC:1,2011-07-15T04:12:00Z,26.4040,-81.8810,29.36,1111122 
COMPS,ioos:station:USF.COMPS:BGC:1,2011-07-15T04:18:00Z,26.4040,-81.8810,29.27,1111122 
COMPS,ioos:station:USF.COMPS:BGC:1,2011-07-15T04:24:00Z,26.4040,-81.8810,29.28,1111122 
COMPS,ioos:station:USF.COMPS:BGC:1,2011-07-15T04:30:00Z,26.4040,-81.8810,29.27,1111122 
COMPS,ioos:station:USF.COMPS:BGC:1,2011-07-15T04:36:00Z,26.4040,-81.8810,29.27,1111122 
COMPS,ioos:station:USF.COMPS:BGC:1,2011-07-15T04:42:00Z,26.4040,-81.8810,29.27,1111122 
COMPS,ioos:station:USF.COMPS:BGC:1,2011-07-15T04:48:00Z,26.4040,-81.8810,29.31,1111122 
COMPS,ioos:station:USF.COMPS:BGC:1,2011-07-15T04:54:00Z,26.4040,-81.8810,29.2,1111122 
COMPS,ioos:station:USF.COMPS:BGC:1,2011-07-15T05:00:00Z,26.4040,-81.8810,29.2,1111122 
COMPS,ioos:station:USF.COMPS:BGC:1,2011-07-15T05:06:00Z,26.4040,-81.8810,29.11,1111122 
COMPS,ioos:station:USF.COMPS:BGC:1,2011-07-15T05:12:00Z,26.4040,-81.8810,29.06,1111122 
COMPS,ioos:station:USF.COMPS:BGC:1,2011-07-15T05:18:00Z,26.4040,-81.8810,29.18,1111122 
COMPS,ioos:station:USF.COMPS:BGC:1,2011-07-15T05:24:00Z,26.4040,-81.8810,29.19,1111122 
COMPS,ioos:station:USF.COMPS:BGC:1,2011-07-15T05:30:00Z,26.4040,-81.8810,29.08,1111122 
COMPS,ioos:station:USF.COMPS:BGC:1,2011-07-15T05:36:00Z,26.4040,-81.8810,29.08,1111122 
COMPS,ioos:station:USF.COMPS:BGC:1,2011-07-15T05:42:00Z,26.4040,-81.8810,29.3,1111122 
COMPS,ioos:station:USF.COMPS:BGC:1,2011-07-15T05:48:00Z,26.4040,-81.8810,29.24,1111122 
COMPS,ioos:station:USF.COMPS:BGC:1,2011-07-15T05:54:00Z,26.4040,-81.8810,29.18,1111122 
COMPS,ioos:station:USF.COMPS:BGC:1,2011-07-15T06:00:00Z,26.4040,-81.8810,29.2,1111122 
COMPS,ioos:station:USF.COMPS:BGC:1,2011-07-15T06:06:00Z,26.4040,-81.8810,29.1,1111122 
COMPS,ioos:station:USF.COMPS:BGC:1,2011-07-15T06:12:00Z,26.4040,-81.8810,29.06,1111122 
COMPS,ioos:station:USF.COMPS:BGC:1,2011-07-15T06:18:00Z,26.4040,-81.8810,29.08,1111122 
COMPS,ioos:station:USF.COMPS:BGC:1,2011-07-15T06:24:00Z,26.4040,-81.8810,29.05,1111122 
COMPS,ioos:station:USF.COMPS:BGC:1,2011-07-15T06:30:00Z,26.4040,-81.8810,29.06,1111122 
COMPS,ioos:station:USF.COMPS:BGC:1,2011-07-15T06:36:00Z,26.4040,-81.8810,29.0,1111122 
COMPS,ioos:station:USF.COMPS:BGC:1,2011-07-15T06:42:00Z,26.4040,-81.8810,28.99,1111122 
COMPS,ioos:station:USF.COMPS:BGC:1,2011-07-15T06:48:00Z,26.4040,-81.8810,29.02,1111122 
COMPS,ioos:station:USF.COMPS:BGC:1,2011-07-15T06:54:00Z,26.4040,-81.8810,29.18,1111122 
COMPS,ioos:station:USF.COMPS:BGC:1,2011-07-15T07:00:00Z,26.4040,-81.8810,29.2,1111122 
COMPS,ioos:station:USF.COMPS:BGC:1,2011-07-15T07:06:00Z,26.4040,-81.8810,29.14,1111122 
COMPS,ioos:station:USF.COMPS:BGC:1,2011-07-15T07:12:00Z,26.4040,-81.8810,29.14,1111122 
COMPS,ioos:station:USF.COMPS:BGC:1,2011-07-15T07:18:00Z,26.4040,-81.8810,29.02,1111122 
COMPS,ioos:station:USF.COMPS:BGC:1,2011-07-15T07:24:00Z,26.4040,-81.8810,29.02,1111122 
COMPS,ioos:station:USF.COMPS:BGC:1,2011-07-15T07:30:00Z,26.4040,-81.8810,28.96,1111122 
COMPS,ioos:station:USF.COMPS:BGC:1,2011-07-15T07:36:00Z,26.4040,-81.8810,29.03,1111122 
COMPS,ioos:station:USF.COMPS:BGC:1,2011-07-15T07:42:00Z,26.4040,-81.8810,29.03,1111122 
COMPS,ioos:station:USF.COMPS:BGC:1,2011-07-15T07:48:00Z,26.4040,-81.8810,28.95,1111122 
COMPS,ioos:station:USF.COMPS:BGC:1,2011-07-15T07:54:00Z,26.4040,-81.8810,29.01,1111122 
COMPS,ioos:station:USF.COMPS:BGC:1,2011-07-15T08:00:00Z,26.4040,-81.8810,29.0,1111122 
COMPS,ioos:station:USF.COMPS:BGC:1,2011-07-15T08:06:00Z,26.4040,-81.8810,29.06,1111122 
COMPS,ioos:station:USF.COMPS:BGC:1,2011-07-15T08:12:00Z,26.4040,-81.8810,29.0,1111122 
COMPS,ioos:station:USF.COMPS:BGC:1,2011-07-15T08:18:00Z,26.4040,-81.8810,29.0,1111122 
COMPS,ioos:station:USF.COMPS:BGC:1,2011-07-15T08:24:00Z,26.4040,-81.8810,28.98,1111122 
COMPS,ioos:station:USF.COMPS:BGC:1,2011-07-15T08:30:00Z,26.4040,-81.8810,29.01,1111122 
COMPS,ioos:station:USF.COMPS:BGC:1,2011-07-15T08:36:00Z,26.4040,-81.8810,29.0,1111122 
COMPS,ioos:station:USF.COMPS:BGC:1,2011-07-15T08:42:00Z,26.4040,-81.8810,28.92,1111122 
COMPS,ioos:station:USF.COMPS:BGC:1,2011-07-15T08:48:00Z,26.4040,-81.8810,28.87,1111122 
COMPS,ioos:station:USF.COMPS:BGC:1,2011-07-15T08:54:00Z,26.4040,-81.8810,28.88,1111122 
COMPS,ioos:station:USF.COMPS:BGC:1,2011-07-15T09:00:00Z,26.4040,-81.8810,28.9,1111122 
COMPS,ioos:station:USF.COMPS:BGC:1,2011-07-15T09:06:00Z,26.4040,-81.8810,29.07,1111122 
COMPS,ioos:station:USF.COMPS:BGC:1,2011-07-15T09:12:00Z,26.4040,-81.8810,29.04,1111122 
COMPS,ioos:station:USF.COMPS:BGC:1,2011-07-15T09:18:00Z,26.4040,-81.8810,28.94,1111122 
COMPS,ioos:station:USF.COMPS:BGC:1,2011-07-15T09:24:00Z,26.4040,-81.8810,28.97,1111122 
COMPS,ioos:station:USF.COMPS:BGC:1,2011-07-15T09:30:00Z,26.4040,-81.8810,29.02,1111122 
COMPS,ioos:station:USF.COMPS:BGC:1,2011-07-15T09:36:00Z,26.4040,-81.8810,29.03,1111122 
COMPS,ioos:station:USF.COMPS:BGC:1,2011-07-15T09:42:00Z,26.4040,-81.8810,29.06,1111122 
COMPS,ioos:station:USF.COMPS:BGC:1,2011-07-15T09:48:00Z,26.4040,-81.8810,29.0,1111122 
COMPS,ioos:station:USF.COMPS:BGC:1,2011-07-15T09:54:00Z,26.4040,-81.8810,28.99,1111122 
COMPS,ioos:station:USF.COMPS:BGC:1,2011-07-15T10:00:00Z,26.4040,-81.8810,29.0,1111122 
COMPS,ioos:station:USF.COMPS:BGC:1,2011-07-15T10:06:00Z,26.4040,-81.8810,28.94,1111122 
COMPS,ioos:station:USF.COMPS:BGC:1,2011-07-15T10:12:00Z,26.4040,-81.8810,28.97,1111122 
COMPS,ioos:station:USF.COMPS:BGC:1,2011-07-15T10:18:00Z,26.4040,-81.8810,28.9,1111122 
COMPS,ioos:station:USF.COMPS:BGC:1,2011-07-15T10:24:00Z,26.4040,-81.8810,28.95,1111122 
COMPS,ioos:station:USF.COMPS:BGC:1,2011-07-15T10:30:00Z,26.4040,-81.8810,28.91,1111122 
COMPS,ioos:station:USF.COMPS:BGC:1,2011-07-15T10:36:00Z,26.4040,-81.8810,28.93,1111122 
COMPS,ioos:station:USF.COMPS:BGC:1,2011-07-15T10:42:00Z,26.4040,-81.8810,29.0,1111122 
COMPS,ioos:station:USF.COMPS:BGC:1,2011-07-15T10:48:00Z,26.4040,-81.8810,28.88,1111122 
COMPS,ioos:station:USF.COMPS:BGC:1,2011-07-15T10:54:00Z,26.4040,-81.8810,28.94,1111122 
COMPS,ioos:station:USF.COMPS:BGC:1,2011-07-15T11:00:00Z,26.4040,-81.8810,28.9,1111122 
COMPS,ioos:station:USF.COMPS:BGC:1,2011-07-15T11:06:00Z,26.4040,-81.8810,29.03,1111122 
COMPS,ioos:station:USF.COMPS:BGC:1,2011-07-15T11:12:00Z,26.4040,-81.8810,29.05,1111122 
COMPS,ioos:station:USF.COMPS:BGC:1,2011-07-15T11:18:00Z,26.4040,-81.8810,29.13,1111122 
COMPS,ioos:station:USF.COMPS:BGC:1,2011-07-15T11:24:00Z,26.4040,-81.8810,29.11,1111122 
COMPS,ioos:station:USF.COMPS:BGC:1,2011-07-15T11:30:00Z,26.4040,-81.8810,29.1,1111122 
COMPS,ioos:station:USF.COMPS:BGC:1,2011-07-15T11:36:00Z,26.4040,-81.8810,29.11,1111122 
COMPS,ioos:station:USF.COMPS:BGC:1,2011-07-15T11:42:00Z,26.4040,-81.8810,29.16,1111122 
COMPS,ioos:station:USF.COMPS:BGC:1,2011-07-15T11:48:00Z,26.4040,-81.8810,29.17,1111122 
COMPS,ioos:station:USF.COMPS:BGC:1,2011-07-15T11:54:00Z,26.4040,-81.8810,29.17,1111122 
COMPS,ioos:station:USF.COMPS:BGC:1,2011-07-15T12:00:00Z,26.4040,-81.8810,29.2,1111122 
COMPS,ioos:station:USF.COMPS:BGC:1,2011-07-15T12:06:00Z,26.4040,-81.8810,29.16,1111122 
COMPS,ioos:station:USF.COMPS:BGC:1,2011-07-15T12:12:00Z,26.4040,-81.8810,29.14,1111122 
COMPS,ioos:station:USF.COMPS:BGC:1,2011-07-15T12:18:00Z,26.4040,-81.8810,29.15,1111122 
COMPS,ioos:station:USF.COMPS:BGC:1,2011-07-15T12:24:00Z,26.4040,-81.8810,29.25,1111122 
COMPS,ioos:station:USF.COMPS:BGC:1,2011-07-15T12:30:00Z,26.4040,-81.8810,29.23,1111122 
COMPS,ioos:station:USF.COMPS:BGC:1,2011-07-15T12:36:00Z,26.4040,-81.8810,29.42,1111122 
COMPS,ioos:station:USF.COMPS:BGC:1,2011-07-15T12:42:00Z,26.4040,-81.8810,29.4,1111122 
COMPS,ioos:station:USF.COMPS:BGC:1,2011-07-15T12:48:00Z,26.4040,-81.8810,29.41,1111122 
COMPS,ioos:station:USF.COMPS:BGC:1,2011-07-15T12:54:00Z,26.4040,-81.8810,29.68,1111122 
COMPS,ioos:station:USF.COMPS:BGC:1,2011-07-15T13:00:00Z,26.4040,-81.8810,29.7,1111122 
COMPS,ioos:station:USF.COMPS:BGC:1,2011-07-15T13:06:00Z,26.4040,-81.8810,29.73,1111122 
COMPS,ioos:station:USF.COMPS:BGC:1,2011-07-15T13:12:00Z,26.4040,-81.8810,29.77,1111122 
COMPS,ioos:station:USF.COMPS:BGC:1,2011-07-15T13:18:00Z,26.4040,-81.8810,29.65,1111122 
COMPS,ioos:station:USF.COMPS:BGC:1,2011-07-15T13:24:00Z,26.4040,-81.8810,29.72,1111122 
COMPS,ioos:station:USF.COMPS:BGC:1,2011-07-15T13:30:00Z,26.4040,-81.8810,29.8,1111122 
COMPS,ioos:station:USF.COMPS:BGC:1,2011-07-15T13:36:00Z,26.4040,-81.8810,29.71,1111122 
COMPS,ioos:station:USF.COMPS:BGC:1,2011-07-15T13:42:00Z,26.4040,-81.8810,29.83,1111122 
COMPS,ioos:station:USF.COMPS:BGC:1,2011-07-15T13:48:00Z,26.4040,-81.8810,29.83,1111122 
COMPS,ioos:station:USF.COMPS:BGC:1,2011-07-15T13:54:00Z,26.4040,-81.8810,29.75,1111122 
COMPS,ioos:station:USF.COMPS:BGC:1,2011-07-15T14:00:00Z,26.4040,-81.8810,29.8,1111122 
COMPS,ioos:station:USF.COMPS:BGC:1,2011-07-15T14:06:00Z,26.4040,-81.8810,29.84,1111122 
COMPS,ioos:station:USF.COMPS:BGC:1,2011-07-15T14:12:00Z,26.4040,-81.8810,29.88,1111122 
COMPS,ioos:station:USF.COMPS:BGC:1,2011-07-15T14:18:00Z,26.4040,-81.8810,29.87,1111122 
COMPS,ioos:station:USF.COMPS:BGC:1,2011-07-15T14:24:00Z,26.4040,-81.8810,30.07,1111122 
COMPS,ioos:station:USF.COMPS:BGC:1,2011-07-15T14:30:00Z,26.4040,-81.8810,29.82,1111122 
COMPS,ioos:station:USF.COMPS:BGC:1,2011-07-15T14:36:00Z,26.4040,-81.8810,29.84,1111122 
COMPS,ioos:station:USF.COMPS:BGC:1,2011-07-15T14:42:00Z,26.4040,-81.8810,29.8,1111122 
COMPS,ioos:station:USF.COMPS:BGC:1,2011-07-15T14:48:00Z,26.4040,-81.8810,29.91,1111122 
COMPS,ioos:station:USF.COMPS:BGC:1,2011-07-15T14:54:00Z,26.4040,-81.8810,29.96,1111122 
COMPS,ioos:station:USF.COMPS:BGC:1,2011-07-15T15:00:00Z,26.4040,-81.8810,30.0,1111122 
COMPS,ioos:station:USF.COMPS:BGC:1,2011-07-15T15:06:00Z,26.4040,-81.8810,29.87,1111122 
COMPS,ioos:station:USF.COMPS:BGC:1,2011-07-15T15:12:00Z,26.4040,-81.8810,29.82,1111122 
COMPS,ioos:station:USF.COMPS:BGC:1,2011-07-15T15:18:00Z,26.4040,-81.8810,29.7,1111122 
COMPS,ioos:station:USF.COMPS:BGC:1,2011-07-15T15:24:00Z,26.4040,-81.8810,29.73,1111122 
COMPS,ioos:station:USF.COMPS:BGC:1,2011-07-15T15:30:00Z,26.4040,-81.8810,29.78,1111122 
COMPS,ioos:station:USF.COMPS:BGC:1,2011-07-15T15:36:00Z,26.4040,-81.8810,29.73,1111122 
COMPS,ioos:station:USF.COMPS:BGC:1,2011-07-15T15:42:00Z,26.4040,-81.8810,29.9,1111122 
COMPS,ioos:station:USF.COMPS:BGC:1,2011-07-15T15:48:00Z,26.4040,-81.8810,29.92,1111122 
COMPS,ioos:station:USF.COMPS:BGC:1,2011-07-15T15:54:00Z,26.4040,-81.8810,29.99,1111122 
COMPS,ioos:station:USF.COMPS:BGC:1,2011-07-15T16:00:00Z,26.4040,-81.8810,30.0,1111122 
COMPS,ioos:station:USF.COMPS:BGC:1,2011-07-15T16:06:00Z,26.4040,-81.8810,29.88,1111122 
COMPS,ioos:station:USF.COMPS:BGC:1,2011-07-15T16:12:00Z,26.4040,-81.8810,30.04,1111122 
COMPS,ioos:station:USF.COMPS:BGC:1,2011-07-15T16:18:00Z,26.4040,-81.8810,29.95,1111122 
COMPS,ioos:station:USF.COMPS:BGC:1,2011-07-15T16:24:00Z,26.4040,-81.8810,29.91,1111122 
COMPS,ioos:station:USF.COMPS:BGC:1,2011-07-15T16:30:00Z,26.4040,-81.8810,29.77,1111122 
COMPS,ioos:station:USF.COMPS:BGC:1,2011-07-15T16:36:00Z,26.4040,-81.8810,29.74,1111122 
COMPS,ioos:station:USF.COMPS:BGC:1,2011-07-15T16:42:00Z,26.4040,-81.8810,29.79,1111122 
COMPS,ioos:station:USF.COMPS:BGC:1,2011-07-15T16:48:00Z,26.4040,-81.8810,29.9,1111122 
COMPS,ioos:station:USF.COMPS:BGC:1,2011-07-15T16:54:00Z,26.4040,-81.8810,29.83,1111122 
COMPS,ioos:station:USF.COMPS:BGC:1,2011-07-15T17:00:00Z,26.4040,-81.8810,29.8,1111122 
COMPS,ioos:station:USF.COMPS:BGC:1,2011-07-15T17:06:00Z,26.4040,-81.8810,29.8,1111122 
COMPS,ioos:station:USF.COMPS:BGC:1,2011-07-15T17:12:00Z,26.4040,-81.8810,29.81,1111122 
COMPS,ioos:station:USF.COMPS:BGC:1,2011-07-15T17:18:00Z,26.4040,-81.8810,29.74,1111122 
COMPS,ioos:station:USF.COMPS:BGC:1,2011-07-15T17:24:00Z,26.4040,-81.8810,29.76,1111122 
COMPS,ioos:station:USF.COMPS:BGC:1,2011-07-15T17:30:00Z,26.4040,-81.8810,29.8,1111122 
COMPS,ioos:station:USF.COMPS:BGC:1,2011-07-15T17:36:00Z,26.4040,-81.8810,29.89,1111122 
COMPS,ioos:station:USF.COMPS:BGC:1,2011-07-15T17:42:00Z,26.4040,-81.8810,29.79,1111122 
COMPS,ioos:station:USF.COMPS:BGC:1,2011-07-15T17:48:00Z,26.4040,-81.8810,29.92,1111122 
COMPS,ioos:station:USF.COMPS:BGC:1,2011-07-15T17:54:00Z,26.4040,-81.8810,29.85,1111122 
COMPS,ioos:station:USF.COMPS:BGC:1,2011-07-15T18:00:00Z,26.4040,-81.8810,29.9,1111122 
COMPS,ioos:station:USF.COMPS:BGC:1,2011-07-15T18:06:00Z,26.4040,-81.8810,29.89,1111122 
COMPS,ioos:station:USF.COMPS:BGC:1,2011-07-15T18:12:00Z,26.4040,-81.8810,29.98,1111122 
COMPS,ioos:station:USF.COMPS:BGC:1,2011-07-15T18:18:00Z,26.4040,-81.8810,30.03,1111122 
COMPS,ioos:station:USF.COMPS:BGC:1,2011-07-15T18:24:00Z,26.4040,-81.8810,30.07,1111122 
COMPS,ioos:station:USF.COMPS:BGC:1,2011-07-15T18:30:00Z,26.4040,-81.8810,30.03,1111122 
COMPS,ioos:station:USF.COMPS:BGC:1,2011-07-15T18:36:00Z,26.4040,-81.8810,29.99,1111122 
COMPS,ioos:station:USF.COMPS:BGC:1,2011-07-15T18:42:00Z,26.4040,-81.8810,30.01,1111122 
COMPS,ioos:station:USF.COMPS:BGC:1,2011-07-15T18:48:00Z,26.4040,-81.8810,29.92,1111122 
COMPS,ioos:station:USF.COMPS:BGC:1,2011-07-15T18:54:00Z,26.4040,-81.8810,29.96,1111122 
COMPS,ioos:station:USF.COMPS:BGC:1,2011-07-15T19:00:00Z,26.4040,-81.8810,30.0,1111122 
COMPS,ioos:station:USF.COMPS:BGC:1,2011-07-15T19:06:00Z,26.4040,-81.8810,30.15,1111122 
COMPS,ioos:station:USF.COMPS:BGC:1,2011-07-15T19:12:00Z,26.4040,-81.8810,30.16,1111122 
COMPS,ioos:station:USF.COMPS:BGC:1,2011-07-15T19:18:00Z,26.4040,-81.8810,30.23,1111122 
COMPS,ioos:station:USF.COMPS:BGC:1,2011-07-15T19:24:00Z,26.4040,-81.8810,30.16,1111122 
COMPS,ioos:station:USF.COMPS:BGC:1,2011-07-15T19:30:00Z,26.4040,-81.8810,30.16,1111122 
COMPS,ioos:station:USF.COMPS:BGC:1,2011-07-15T19:36:00Z,26.4040,-81.8810,30.24,1111122 
COMPS,ioos:station:USF.COMPS:BGC:1,2011-07-15T19:42:00Z,26.4040,-81.8810,30.17,1111122 
COMPS,ioos:station:USF.COMPS:BGC:1,2011-07-15T19:48:00Z,26.4040,-81.8810,30.14,1111122 
COMPS,ioos:station:USF.COMPS:BGC:1,2011-07-15T19:54:00Z,26.4040,-81.8810,30.15,1111122 
COMPS,ioos:station:USF.COMPS:BGC:1,2011-07-15T20:00:00Z,26.4040,-81.8810,30.2,1111122 
COMPS,ioos:station:USF.COMPS:BGC:1,2011-07-15T20:06:00Z,26.4040,-81.8810,30.19,1111122 
COMPS,ioos:station:USF.COMPS:BGC:1,2011-07-15T20:12:00Z,26.4040,-81.8810,30.2,1111122 
COMPS,ioos:station:USF.COMPS:BGC:1,2011-07-15T20:18:00Z,26.4040,-81.8810,30.18,1111122 
COMPS,ioos:station:USF.COMPS:BGC:1,2011-07-15T20:24:00Z,26.4040,-81.8810,30.18,1111122 
COMPS,ioos:station:USF.COMPS:BGC:1,2011-07-15T20:30:00Z,26.4040,-81.8810,30.22,1111122 
COMPS,ioos:station:USF.COMPS:BGC:1,2011-07-15T20:36:00Z,26.4040,-81.8810,30.26,1111122 
COMPS,ioos:station:USF.COMPS:BGC:1,2011-07-15T20:42:00Z,26.4040,-81.8810,30.29,1111122 
COMPS,ioos:station:USF.COMPS:BGC:1,2011-07-15T20:48:00Z,26.4040,-81.8810,30.39,1111122 
COMPS,ioos:station:USF.COMPS:BGC:1,2011-07-15T20:54:00Z,26.4040,-81.8810,30.37,1111122 
COMPS,ioos:station:USF.COMPS:BGC:1,2011-07-15T21:00:00Z,26.4040,-81.8810,30.4,1111122 
COMPS,ioos:station:USF.COMPS:BGC:1,2011-07-15T21:06:00Z,26.4040,-81.8810,30.35,1111122 
COMPS,ioos:station:USF.COMPS:BGC:1,2011-07-15T21:12:00Z,26.4040,-81.8810,30.43,1111122 
COMPS,ioos:station:USF.COMPS:BGC:1,2011-07-15T21:18:00Z,26.4040,-81.8810,30.49,1111122 
COMPS,ioos:station:USF.COMPS:BGC:1,2011-07-15T21:24:00Z,26.4040,-81.8810,30.39,1111122 
COMPS,ioos:station:USF.COMPS:BGC:1,2011-07-15T21:30:00Z,26.4040,-81.8810,30.35,1111122 
COMPS,ioos:station:USF.COMPS:BGC:1,2011-07-15T21:36:00Z,26.4040,-81.8810,30.32,1111122 
COMPS,ioos:station:USF.COMPS:BGC:1,2011-07-15T21:42:00Z,26.4040,-81.8810,30.29,1111122 
COMPS,ioos:station:USF.COMPS:BGC:1,2011-07-15T21:48:00Z,26.4040,-81.8810,30.38,1111122 
COMPS,ioos:station:USF.COMPS:BGC:1,2011-07-15T21:54:00Z,26.4040,-81.8810,30.45,1111122 
COMPS,ioos:station:USF.COMPS:BGC:1,2011-07-15T22:00:00Z,26.4040,-81.8810,30.5,1111122 
COMPS,ioos:station:USF.COMPS:BGC:1,2011-07-15T22:06:00Z,26.4040,-81.8810,30.78,1111122 
COMPS,ioos:station:USF.COMPS:BGC:1,2011-07-15T22:12:00Z,26.4040,-81.8810,30.53,1111122 
COMPS,ioos:station:USF.COMPS:BGC:1,2011-07-15T22:18:00Z,26.4040,-81.8810,30.45,1111122 
COMPS,ioos:station:USF.COMPS:BGC:1,2011-07-15T22:24:00Z,26.4040,-81.8810,30.29,1111122 
COMPS,ioos:station:USF.COMPS:BGC:1,2011-07-15T22:30:00Z,26.4040,-81.8810,30.16,1111122 
COMPS,ioos:station:USF.COMPS:BGC:1,2011-07-15T22:36:00Z,26.4040,-81.8810,30.36,1111122 
COMPS,ioos:station:USF.COMPS:BGC:1,2011-07-15T22:42:00Z,26.4040,-81.8810,30.43,1111122 
COMPS,ioos:station:USF.COMPS:BGC:1,2011-07-15T22:48:00Z,26.4040,-81.8810,30.44,1111122 
COMPS,ioos:station:USF.COMPS:BGC:1,2011-07-15T22:54:00Z,26.4040,-81.8810,30.44,1111122 
COMPS,ioos:station:USF.COMPS:BGC:1,2011-07-15T23:00:00Z,26.4040,-81.8810,30.4,1111122 
COMPS,ioos:station:USF.COMPS:BGC:1,2011-07-15T23:06:00Z,26.4040,-81.8810,30.34,1111122 